Find Starlink 32812

NORAD ID: 63038 Int'l Des: 2025-034 Owner: SPXS Country: US Constellation: starlink operational
LEOCIRCULAR

当前视图

正在加载3D地球...

About Starlink 32812

Starlink 32812 (NORAD 63038) is a starlink constellation satellite (v2 mini) launched Feb 18, 2025 by SPXS of US. It operates in LEO, CIRCULAR orbit with a mass of 730.00 kg.

即将过境

Passes for default location (London). Set your location on the main map for personalized predictions.

高度历史

Loading altitude history...

两行轨道根数

1 63038U 25034K 26263.01745066 .00014736 00000-0 48543-3 0 9990
2 63038 53.1596 75.1807 0001090 82.6634 277.4491 15.31715618 88848
Epoch: Sep 20, 2026 • Age: 42 hours

当前状态

高度 471.2 km
远地点 / 近地点 N/A
速度 7.63 km/s
星下点 1.22°N, 146.63°E
发射日期 Feb 18, 2025
运行时间 1.5 years
类型 internet

技术详情

分类 Payload
质量 730.00 kg
干质量 700.00 kg
长度 0.30 m
跨度 29.00 m
形状 ? Box + pan
制造商 SPXS
平台类型 Starlink V2M
阶段状态 In Orbit
所有者/国家 SPXS/US

Most Searched